Theta_e
336 333 332 332 332 331 331 331 331 330 329 328 328 327 325 322 323 323 319 319 322 325 323 326 326 325 326 324 325 324 321 320 321 320 319 321 320 322 323 322 321 320 319
337 334 334 333 331 332 330 330 330 329 327 326 324 325 324 322 322 322 322 324 323 324 323 323 323 326 326 325 326 323 322 319 320 320 316 317 320 321 322 321 320 319 318
334 333 332 331 329 328 329 329 329 326 325 323 320 319 317 317 319 320 320 321 320 320 321 324 325 327 326 327 326 325 322 320 318 313 317 316 318 320 320 320 320 319 319
333 332 331 330 330 330 328 327 326 324 322 323 322 322 319 317 317 315 315 317 318 322 324 326 327 324 324 325 326 324 322 321 318 315 314 315 319 319 320 320 321 321 319
332 331 331 330 329 328 327 326 324 321 323 322 319 319 319 321 321 321 320 319 323 324 326 325 322 324 325 325 325 324 324 323 319 316 315 315 317 318 320 321 321 321 319
334 333 331 330 330 329 326 322 320 322 323 324 324 325 325 324 324 324 323 322 321 321 322 320 319 323 321 325 324 326 324 323 321 318 315 316 316 317 318 320 321 318 320
334 333 332 331 330 327 325 324 325 324 325 325 325 326 326 326 326 326 325 324 324 323 322 321 320 321 322 323 325 325 324 324 322 320 316 317 317 317 316 317 316 315 319
333 333 332 329 328 327 327 326 326 326 326 326 326 326 326 326 325 326 325 325 325 324 324 324 325 324 322 321 322 324 325 325 325 322 318 315 317 317 315 314 313 315 317
333 331 330 329 328 328 327 326 324 324 324 323 323 323 324 323 325 325 325 326 325 325 325 323 322 324 321 322 324 325 324 326 325 323 322 317 317 316 316 314 316 317 317
330 330 330 329 330 329 328 328 325 324 323 322 324 325 326 326 325 325 325 325 325 325 325 325 322 324 324 324 323 325 326 325 325 323 323 321 317 316 314 314 317 319 319
330 329 329 328 328 327 326 326 326 325 324 324 324 323 324 323 322 322 323 325 325 325 325 325 324 320 322 322 322 322 322 321 321 323 323 322 320 318 318 317 318 320 319
326 327 327 327 327 327 326 326 326 326 326 325 324 325 323 323 326 326 325 325 325 326 325 323 323 321 320 321 325 323 320 321 322 321 323 321 319 317 318 318 317 319 318
327 327 327 327 327 326 324 325 326 326 325 324 324 325 325 325 325 325 323 324 325 327 324 323 322 323 323 324 322 320 323 324 323 321 319 318 318 319 318 318 317 320 318
328 328 328 327 327 326 326 325 324 326 327 327 326 326 326 325 322 321 322 323 323 322 321 322 323 323 321 323 324 323 322 321 322 321 319 319 319 318 318 318 318 319 317
329 330 330 329 329 328 327 327 326 326 325 323 324 323 322 321 319 317 316 317 319 318 317 318 319 320 320 321 321 321 321 322 323 322 322 321 320 320 320 319 319 319 319
330 329 329 327 322 323 324 325 324 324 324 323 322 322 321 321 320 320 320 320 319 319 319 319 320 320 319 320 322 323 323 322 322 320 318 319 319 319 318 317 319 320 320
330 329 329 327 323 324 324 322 322 323 323 323 323 322 322 321 321 320 320 319 318 318 316 318 320 320 320 322 322 321 320 319 318 318 319 318 318 318 317 317 319 320 321
330 330 329 324 322 321 322 324 325 326 325 324 323 322 322 322 323 322 320 323 324 323 319 319 321 321 320 321 321 319 318 318 318 317 317 317 316 316 316 317 317 316 316
330 330 326 325 325 325 325 325 325 323 323 323 322 323 324 325 323 324 326 325 322 320 320 322 323 321 322 322 320 317 318 317 317 317 317 316 314 315 315 315 315 315 315
328 326 325 325 326 326 326 324 324 323 323 324 325 327 326 326 325 325 323 323 324 322 323 321 321 320 320 320 319 319 317 317 317 316 314 312 311 311 311 311 311 313 313
325 324 324 325 326 325 325 325 325 324 325 326 325 325 325 325 325 323 321 324 325 324 324 322 321 321 320 319 318 317 317 316 313 310 306 305 305 308 308 308 308 308 309
325 326 326 325 324 324 325 325 325 326 326 324 324 324 325 325 325 325 325 324 323 322 318 316 317 317 317 317 316 315 315 310 309 303 302 302 301 302 303 303 305 307 308
325 324 323 323 324 325 325 326 326 326 326 325 325 325 323 324 324 323 323 323 319 316 313 313 313 313 314 314 314 314 313 310 308 301 301 301 300 300 300 301 302 302 306
325 324 323 324 327 327 327 326 325 324 323 325 323 323 321 321 320 320 318 315 316 314 314 311 314 314 312 312 313 311 308 303 301 301 301 300 300 299 300 301 302 303 304
324 325 325 326 326 325 324 324 326 326 326 323 322 320 319 314 314 313 312 312 312 311 310 310 310 310 310 311 310 306 302 301 301 300 300 300 299 299 300 301 302 304 304
326 325 325 326 326 326 325 324 326 324 321 319 318 314 313 314 313 312 312 311 309 309 308 308 308 310 309 308 308 308 305 301 302 303 303 300 299 299 300 302 302 302 302
Wind_Speed
12 12 15 15 15 12 13 14 12 10 8 8 8 9 8 6 3 5 7 5 3 2 4 5 3 4 2 3 4 6 8 11 10 17 22 21 24 21 18 19 23 26 27
11 13 16 14 12 12 12 11 9 7 5 8 7 5 3 4 7 7 5 3 0 2 1 3 4 4 7 6 5 7 8 9 9 17 20 18 18 18 18 23 27 26 28
16 18 15 14 13 12 11 9 7 8 6 5 5 5 7 8 7 5 5 2 2 4 4 4 7 9 9 8 10 11 11 11 12 14 18 18 17 17 20 23 24 27 30
14 14 12 12 11 9 8 9 8 7 7 6 5 4 5 5 4 4 5 5 4 4 5 8 10 13 13 12 14 13 14 15 15 16 21 21 17 18 15 22 26 27 29
15 14 13 10 10 9 10 8 8 9 7 6 6 4 3 2 4 4 5 6 8 8 9 11 12 13 16 16 18 19 20 20 18 17 19 22 20 20 18 19 22 23 25
12 13 13 13 13 11 10 9 8 7 5 3 3 2 3 5 5 8 11 11 12 13 15 16 15 16 18 17 20 22 23 22 21 17 21 20 25 23 24 25 24 18 6
14 15 14 14 14 13 10 8 7 6 7 9 8 8 10 10 11 11 14 15 13 14 16 17 19 20 19 19 21 20 21 24 26 22 23 25 26 26 25 27 25 23 20
16 15 15 14 12 12 11 9 8 8 9 9 11 11 13 14 13 14 15 17 18 17 18 20 21 23 24 24 25 26 28 31 31 28 25 26 26 27 25 29 29 28 30
17 16 13 13 12 12 14 12 7 7 6 8 10 14 15 16 15 15 15 16 20 20 20 21 23 26 26 30 35 35 38 37 33 32 30 26 26 25 28 31 29 17 13
15 14 12 10 8 8 8 6 8 7 9 11 12 15 15 17 17 17 17 19 21 24 24 25 24 25 27 30 22 24 31 33 35 35 34 30 29 31 28 28 30 23 17
14 11 10 8 6 6 8 8 7 7 10 13 16 18 21 22 23 23 23 23 26 26 26 27 27 27 28 28 27 18 22 27 31 36 36 35 36 39 37 33 28 23 22
7 7 7 7 8 10 10 14 11 12 16 19 20 22 23 25 25 25 24 26 27 28 29 29 30 30 31 30 28 31 32 32 31 32 35 38 37 38 37 29 29 25 23
7 8 8 9 11 13 13 13 16 18 19 23 23 24 27 26 25 22 16 17 22 27 30 31 33 34 34 36 38 39 33 33 35 32 32 33 37 40 37 34 31 30 27
10 11 12 14 17 19 20 21 22 23 24 24 24 26 25 22 19 19 13 10 10 14 16 18 19 20 26 31 31 36 39 39 38 34 31 35 35 30 31 34 35 37 32
13 14 15 18 22 24 26 28 27 27 24 24 24 23 23 25 25 21 21 21 19 20 19 17 21 24 25 27 27 27 29 31 22 13 16 23 22 22 27 28 29 29 27
14 11 13 13 17 20 16 21 25 27 25 27 28 29 31 31 31 29 29 29 30 31 24 24 21 27 21 20 21 16 14 11 21 22 18 12 20 22 23 32 26 26 18
14 13 15 17 17 18 18 18 18 18 20 23 27 30 33 37 38 39 36 35 37 36 30 32 31 27 18 19 16 14 10 11 12 17 19 19 17 21 23 24 24 20 17
17 16 17 17 19 21 22 23 23 24 20 21 25 26 27 29 30 35 27 18 22 27 31 33 28 29 24 16 13 20 15 15 16 17 15 17 14 18 20 19 17 14 15
17 20 20 19 23 27 29 30 24 25 26 29 32 35 35 32 13 10 20 24 26 24 21 27 32 25 24 23 26 25 24 20 17 16 10 10 11 11 14 15 16 14 15
17 22 25 27 28 28 27 26 27 30 30 31 25 10 3 9 11 14 20 25 17 11 16 22 21 20 22 23 19 16 14 16 12 2 5 8 12 12 13 14 15 16 15
18 24 27 30 32 33 33 30 33 27 16 10 3 7 12 12 17 16 22 14 11 2 9 15 19 19 20 16 10 12 10 4 5 7 9 12 14 15 17 13 12 15 14
23 22 20 22 24 23 28 32 14 4 1 11 20 16 11 11 10 13 11 4 2 2 7 9 10 12 12 11 11 8 3 6 1 3 6 10 12 14 17 20 20 18 15
21 22 23 26 28 25 10 12 10 11 16 13 9 5 9 6 3 4 5 3 1 5 10 12 10 10 10 8 5 8 8 7 2 3 6 10 14 17 16 18 20 22 23
22 24 26 25 9 6 6 16 20 17 12 4 6 4 8 9 5 4 6 6 4 9 11 15 14 13 8 11 10 9 9 5 2 2 7 11 17 19 16 19 22 26 24
26 29 23 13 9 5 3 12 14 17 7 3 3 5 2 5 6 3 7 5 7 10 13 13 14 12 9 10 6 10 4 1 2 8 13 15 19 21 18 19 22 21 15
19 17 16 8 9 10 13 4 3 5 2 1 3 7 6 5 3 3 5 6 10 10 12 11 11 8 11 10 7 10 8 6 5 9 15 16 19 19 20 22 18 17 19
Wind_Direction
134 133 139 139 141 145 141 137 134 133 141 145 144 144 138 151 165 132 121 136 118 28 14 356 342 8 49 9 40 15 354 353 325 322 325 332 327 339 346 340 340 344 342
140 132 139 140 142 141 140 139 141 147 159 143 144 143 163 170 146 135 100 59 26 26 316 333 333 337 321 317 303 322 327 329 323 315 313 322 334 337 335 331 335 338 343
143 143 142 145 145 143 138 138 141 139 144 143 142 137 146 139 143 148 155 164 199 278 282 307 309 314 310 300 293 295 304 306 318 319 312 321 322 326 326 329 333 335 343
139 144 148 150 148 150 153 148 143 135 138 125 126 150 161 162 176 185 205 227 235 263 285 297 299 303 300 300 295 280 299 302 312 316 320 318 319 328 320 324 322 327 330
141 140 143 152 145 142 139 144 151 154 143 155 173 167 175 234 249 252 268 273 270 276 284 287 291 298 292 289 289 287 288 287 292 303 305 305 308 311 307 310 306 311 321
148 145 144 142 148 147 144 144 140 143 151 176 206 218 263 269 269 260 261 269 275 277 281 289 291 292 291 289 301 277 272 270 273 280 284 282 293 301 302 304 303 307 313
156 153 153 153 154 153 152 152 167 186 202 229 246 249 257 267 270 262 260 266 274 280 283 288 287 288 290 285 285 280 277 272 269 272 283 282 287 296 303 301 298 296 286
154 155 157 163 169 167 173 192 211 225 238 247 259 268 268 268 275 278 278 270 266 270 277 286 286 290 289 284 284 284 281 277 271 265 273 285 285 294 291 297 295 292 294
162 164 176 185 187 193 206 212 236 250 261 274 276 277 277 280 286 281 277 272 262 269 280 287 285 289 295 294 288 281 280 276 271 275 277 283 285 282 292 300 291 276 279
178 183 188 200 204 199 218 227 241 252 269 276 281 285 280 277 273 272 267 272 268 269 275 280 283 287 292 293 294 288 282 282 277 285 281 279 280 282 292 292 296 269 254
177 172 179 192 209 231 239 242 251 264 274 277 277 279 280 283 288 285 274 268 265 267 268 271 272 278 281 293 302 297 292 298 295 291 287 283 284 289 293 290 286 265 255
176 180 194 207 228 248 261 245 249 251 260 265 273 280 284 289 292 291 273 265 264 259 262 269 273 277 279 285 284 289 292 293 289 280 272 272 276 281 286 289 276 260 270
190 203 217 233 241 251 258 250 245 256 264 269 277 274 278 286 293 289 265 265 267 262 265 270 276 278 280 279 280 285 290 289 285 273 263 263 269 277 278 281 273 255 265
217 229 239 244 248 251 255 257 259 261 264 263 264 270 272 278 286 287 291 273 267 258 272 289 295 297 296 289 285 283 284 286 281 271 267 274 277 271 266 269 264 258 262
230 243 256 257 254 258 259 258 257 258 261 261 264 268 271 280 289 292 289 282 281 282 289 299 308 314 301 291 284 286 289 287 286 304 316 299 306 321 303 287 278 270 264
230 257 281 296 306 291 279 266 259 263 268 263 265 268 273 276 280 282 283 284 286 286 287 290 301 301 286 294 300 306 317 307 322 327 320 295 306 301 287 291 300 281 285
231 252 276 286 288 298 303 295 290 283 273 273 274 275 275 275 276 277 278 286 294 299 287 282 280 284 291 299 284 306 303 308 307 327 317 305 311 275 267 267 259 260 267
238 256 269 275 276 279 283 288 289 289 279 288 288 286 285 284 282 277 274 270 303 305 297 280 277 283 290 286 279 298 297 299 294 311 313 299 300 289 283 276 272 280 279
229 244 256 265 268 272 275 277 275 279 285 285 285 285 284 284 297 314 322 314 300 279 295 292 290 294 297 288 286 289 296 295 296 297 278 292 314 318 311 314 305 295 285
236 249 257 260 264 267 265 269 275 276 274 275 282 308 292 319 303 289 289 305 288 273 288 282 284 298 298 298 293 283 283 293 304 324 340 334 332 332 323 321 326 317 313
258 262 265 266 265 264 261 259 262 266 281 298 111 321 316 326 315 313 313 296 263 278 270 285 298 302 305 296 286 300 300 302 79 44 9 355 355 328 316 306 312 317 314
258 265 274 285 286 274 264 257 260 282 177 305 307 299 329 337 327 320 301 273 3 335 309 320 319 322 316 307 307 296 291 144 332 13 347 339 337 332 328 325 314 302 300
270 275 276 281 284 295 34 80 1 324 307 329 328 27 53 33 31 290 289 203 293 334 351 350 338 344 332 327 306 271 229 213 261 322 342 348 343 333 321 315 312 311 297
258 259 262 272 326 17 5 333 309 314 359 9 95 54 348 338 8 31 78 35 340 349 337 353 322 314 321 321 293 264 211 181 145 7 354 345 341 336 326 323 319 311 297
256 260 259 259 234 265 345 357 340 339 300 133 351 318 77 111 115 75 6 9 354 345 338 336 340 335 347 336 293 196 192 215 35 357 344 339 339 332 326 325 318 311 328
268 278 272 246 325 306 319 296 290 147 129 89 94 71 14 139 157 22 35 9 2 350 351 350 350 335 338 335 298 259 229 236 292 320 317 325 329 325 328 332 331 326 322